Year,Month,Day,Hour,Minute,Value (Times are PST for temperature in C)
2012,04,06,00,00,3.70
2012,04,06,00,01,3.70
2012,04,06,00,02,3.70
2012,04,06,00,03,3.70
2012,04,06,00,04,3.60
2012,04,06,00,05,3.60
2012,04,06,00,06,3.60
2012,04,06,00,07,3.60
2012,04,06,00,08,3.60
2012,04,06,00,09,3.60
2012,04,06,00,10,3.60
2012,04,06,00,11,3.50
2012,04,06,00,12,3.50
2012,04,06,00,13,3.50
2012,04,06,00,14,3.50
2012,04,06,00,15,3.40
2012,04,06,00,16,3.40
2012,04,06,00,17,3.40
2012,04,06,00,18,3.40
2012,04,06,00,19,3.30
2012,04,06,00,20,3.30
2012,04,06,00,21,3.30
2012,04,06,00,22,3.30
2012,04,06,00,23,3.30
2012,04,06,00,24,3.30
2012,04,06,00,25,3.20
2012,04,06,00,26,3.20
2012,04,06,00,27,3.20
2012,04,06,00,28,3.20
2012,04,06,00,29,3.10
2012,04,06,00,30,3.10
2012,04,06,00,31,3.10
2012,04,06,00,32,3.10
2012,04,06,00,33,3.10
2012,04,06,00,34,3.00
2012,04,06,00,35,2.90
2012,04,06,00,36,2.90
2012,04,06,00,37,2.90
2012,04,06,00,38,2.90
2012,04,06,00,39,2.90
2012,04,06,00,40,2.90
2012,04,06,00,41,2.90
2012,04,06,00,42,2.90
2012,04,06,00,43,2.90
2012,04,06,00,44,2.90
2012,04,06,00,45,2.90
2012,04,06,00,46,2.80
2012,04,06,00,47,2.80
2012,04,06,00,48,2.80
2012,04,06,00,49,2.80
2012,04,06,00,50,2.80
2012,04,06,00,51,2.80
2012,04,06,00,52,2.70
2012,04,06,00,53,2.70
2012,04,06,00,54,2.70
2012,04,06,00,55,2.70
2012,04,06,00,56,2.70
2012,04,06,00,57,2.70
2012,04,06,00,58,2.70
2012,04,06,00,59,2.70
2012,04,06,01,00,2.70
2012,04,06,01,01,2.70
2012,04,06,01,02,2.70
2012,04,06,01,03,2.70
2012,04,06,01,04,2.70
2012,04,06,01,05,2.60
2012,04,06,01,06,2.60
2012,04,06,01,07,2.60
2012,04,06,01,08,2.60
2012,04,06,01,09,2.60
2012,04,06,01,10,2.60
2012,04,06,01,11,2.60
2012,04,06,01,12,2.60
2012,04,06,01,13,2.60
2012,04,06,01,14,2.60
2012,04,06,01,15,2.50
2012,04,06,01,16,2.50
2012,04,06,01,17,2.50
2012,04,06,01,18,2.50
2012,04,06,01,19,2.50
2012,04,06,01,20,2.50
2012,04,06,01,21,2.50
2012,04,06,01,22,2.50
2012,04,06,01,23,2.50
2012,04,06,01,24,2.50
2012,04,06,01,25,2.50
2012,04,06,01,26,2.50
2012,04,06,01,27,2.50
2012,04,06,01,28,2.40
2012,04,06,01,29,2.40
2012,04,06,01,30,2.40
2012,04,06,01,31,2.40
2012,04,06,01,32,2.40
2012,04,06,01,33,2.40
2012,04,06,01,34,2.30
2012,04,06,01,35,2.30
2012,04,06,01,36,2.30
2012,04,06,01,37,2.30
2012,04,06,01,38,2.30
2012,04,06,01,39,2.20
2012,04,06,01,40,2.20
2012,04,06,01,41,2.20
2012,04,06,01,42,2.20
2012,04,06,01,43,2.20
2012,04,06,01,44,2.20
2012,04,06,01,45,2.20
2012,04,06,01,46,2.20
2012,04,06,01,47,2.20
2012,04,06,01,48,2.20
2012,04,06,01,49,2.20
2012,04,06,01,50,2.20
2012,04,06,01,51,2.20
2012,04,06,01,52,2.20
2012,04,06,01,53,2.20
2012,04,06,01,54,2.20
2012,04,06,01,55,2.10
2012,04,06,01,56,2.10
2012,04,06,01,57,2.10
2012,04,06,01,58,2.10
2012,04,06,01,59,2.10
2012,04,06,02,00,2.00
2012,04,06,02,01,2.00
2012,04,06,02,02,2.00
2012,04,06,02,03,2.00
2012,04,06,02,04,2.00
2012,04,06,02,05,2.00
2012,04,06,02,06,2.00
2012,04,06,02,07,2.00
2012,04,06,02,08,2.00
2012,04,06,02,09,2.00
2012,04,06,02,10,2.00
2012,04,06,02,11,2.00
2012,04,06,02,12,2.00
2012,04,06,02,13,2.00
2012,04,06,02,14,2.00
2012,04,06,02,15,2.00
2012,04,06,02,16,2.00
2012,04,06,02,17,2.00
2012,04,06,02,18,2.00
2012,04,06,02,19,2.00
2012,04,06,02,20,2.00
2012,04,06,02,21,2.00
2012,04,06,02,22,2.00
2012,04,06,02,23,2.00
2012,04,06,02,24,2.00
2012,04,06,02,25,2.00
2012,04,06,02,26,2.00
2012,04,06,02,27,2.00
2012,04,06,02,28,2.00
2012,04,06,02,29,2.00
2012,04,06,02,30,2.00
2012,04,06,02,31,2.00
2012,04,06,02,32,2.00
2012,04,06,02,33,2.00
2012,04,06,02,34,2.00
2012,04,06,02,35,2.00
2012,04,06,02,36,2.00
2012,04,06,02,37,2.00
2012,04,06,02,38,2.00
2012,04,06,02,39,2.00
2012,04,06,02,40,2.00
2012,04,06,02,41,2.00
2012,04,06,02,42,2.00
2012,04,06,02,43,1.90
2012,04,06,02,44,1.90
2012,04,06,02,45,1.90
2012,04,06,02,46,1.90
2012,04,06,02,47,1.90
2012,04,06,02,48,1.90
2012,04,06,02,49,1.90
2012,04,06,02,50,1.90
2012,04,06,02,51,1.90
2012,04,06,02,52,1.90
2012,04,06,02,53,1.90
2012,04,06,02,54,1.90
2012,04,06,02,55,1.90
2012,04,06,02,56,1.90
2012,04,06,02,57,1.90
2012,04,06,02,58,1.90
2012,04,06,02,59,1.90
2012,04,06,03,00,1.90
2012,04,06,03,01,1.90
2012,04,06,03,02,1.80
2012,04,06,03,03,1.80
2012,04,06,03,04,1.80
2012,04,06,03,05,1.80
2012,04,06,03,06,1.80
2012,04,06,03,07,1.80
2012,04,06,03,08,1.80
2012,04,06,03,09,1.80
2012,04,06,03,10,1.80
2012,04,06,03,11,1.80
2012,04,06,03,12,1.80
2012,04,06,03,13,1.80
2012,04,06,03,14,1.80
2012,04,06,03,15,1.80
2012,04,06,03,16,1.80
2012,04,06,03,17,1.80
2012,04,06,03,18,1.80
2012,04,06,03,19,1.80
2012,04,06,03,20,1.80
2012,04,06,03,21,1.80
2012,04,06,03,22,1.80
2012,04,06,03,23,1.80
2012,04,06,03,24,1.80
2012,04,06,03,25,1.80
2012,04,06,03,26,1.80
2012,04,06,03,27,1.80
2012,04,06,03,28,1.80
2012,04,06,03,29,1.80
2012,04,06,03,30,1.80
2012,04,06,03,31,1.80
2012,04,06,03,32,1.80
2012,04,06,03,33,1.80
2012,04,06,03,34,1.80
2012,04,06,03,35,1.80
2012,04,06,03,36,1.80
2012,04,06,03,37,1.80
2012,04,06,03,38,1.80
2012,04,06,03,39,1.80
2012,04,06,03,40,1.80
2012,04,06,03,41,1.80
2012,04,06,03,42,1.80
2012,04,06,03,43,1.80
2012,04,06,03,44,1.80
2012,04,06,03,45,1.80
2012,04,06,03,46,1.80
2012,04,06,03,47,1.80
2012,04,06,03,48,1.80
2012,04,06,03,49,1.80
2012,04,06,03,50,1.80
2012,04,06,03,51,1.70
2012,04,06,03,52,1.70
2012,04,06,03,53,1.70
2012,04,06,03,54,1.70
2012,04,06,03,55,1.70
2012,04,06,03,56,1.70
2012,04,06,03,57,1.70
2012,04,06,03,58,1.60
2012,04,06,03,59,1.60
2012,04,06,04,00,1.60
2012,04,06,04,01,1.60
2012,04,06,04,02,1.60
2012,04,06,04,03,1.60
2012,04,06,04,04,1.60
2012,04,06,04,05,1.60
2012,04,06,04,06,1.60
2012,04,06,04,07,1.60
2012,04,06,04,08,1.60
2012,04,06,04,09,1.60
2012,04,06,04,10,1.60
2012,04,06,04,11,1.50
2012,04,06,04,12,1.50
2012,04,06,04,13,1.50
2012,04,06,04,14,1.50
2012,04,06,04,15,1.50
2012,04,06,04,16,1.50
2012,04,06,04,17,1.50
2012,04,06,04,18,1.50
2012,04,06,04,19,1.50
2012,04,06,04,20,1.50
2012,04,06,04,21,1.50
2012,04,06,04,22,1.50
2012,04,06,04,23,1.50
2012,04,06,04,24,1.50
2012,04,06,04,25,1.50
2012,04,06,04,26,1.50
2012,04,06,04,27,1.50
2012,04,06,04,28,1.50
2012,04,06,04,29,1.50
2012,04,06,04,30,1.50
2012,04,06,04,31,1.50
2012,04,06,04,32,1.50
2012,04,06,04,33,1.50
2012,04,06,04,34,1.50
2012,04,06,04,35,1.50
2012,04,06,04,36,1.40
2012,04,06,04,37,1.40
2012,04,06,04,38,1.40
2012,04,06,04,39,1.40
2012,04,06,04,40,1.40
2012,04,06,04,41,1.40
2012,04,06,04,42,1.40
2012,04,06,04,43,1.30
2012,04,06,04,44,1.30
2012,04,06,04,45,1.30
2012,04,06,04,46,1.30
2012,04,06,04,47,1.30
2012,04,06,04,48,1.30
2012,04,06,04,49,1.30
2012,04,06,04,50,1.30
2012,04,06,04,51,1.30
2012,04,06,04,52,1.30
2012,04,06,04,53,1.30
2012,04,06,04,54,1.30
2012,04,06,04,55,1.30
2012,04,06,04,56,1.30
2012,04,06,04,57,1.30
2012,04,06,04,58,1.20
2012,04,06,04,59,1.20
2012,04,06,05,00,1.20
2012,04,06,05,01,1.20
2012,04,06,05,02,1.20
2012,04,06,05,03,1.20
2012,04,06,05,04,1.20
2012,04,06,05,05,1.10
2012,04,06,05,06,1.10
2012,04,06,05,07,1.10
2012,04,06,05,08,1.10
2012,04,06,05,09,1.10
2012,04,06,05,10,1.10
2012,04,06,05,11,1.10
2012,04,06,05,12,1.10
2012,04,06,05,13,1.10
2012,04,06,05,14,1.10
2012,04,06,05,15,1.10
2012,04,06,05,16,1.10
2012,04,06,05,17,1.10
2012,04,06,05,18,1.10
2012,04,06,05,19,1.10
2012,04,06,05,20,1.00
2012,04,06,05,21,1.00
2012,04,06,05,22,1.00
2012,04,06,05,23,1.00
2012,04,06,05,24,1.00
2012,04,06,05,25,1.00
2012,04,06,05,26,1.00
2012,04,06,05,27,1.10
2012,04,06,05,28,1.10
2012,04,06,05,29,1.10
2012,04,06,05,30,1.10
2012,04,06,05,31,1.10
2012,04,06,05,32,1.10
2012,04,06,05,33,1.10
2012,04,06,05,34,1.10
2012,04,06,05,35,1.10
2012,04,06,05,36,1.10
2012,04,06,05,37,1.10
2012,04,06,05,38,1.10
2012,04,06,05,39,1.10
2012,04,06,05,40,1.10
2012,04,06,05,41,1.10
2012,04,06,05,42,1.10
2012,04,06,05,43,1.10
2012,04,06,05,44,1.10
2012,04,06,05,45,1.10
2012,04,06,05,46,1.10
2012,04,06,05,47,1.00
2012,04,06,05,48,1.00
2012,04,06,05,49,1.00
2012,04,06,05,50,1.00
2012,04,06,05,51,1.00
2012,04,06,05,52,1.10
2012,04,06,05,53,1.10
2012,04,06,05,54,1.10
2012,04,06,05,55,1.10
2012,04,06,05,56,1.10
2012,04,06,05,57,1.10
2012,04,06,05,58,1.10
2012,04,06,05,59,1.10
2012,04,06,06,00,1.10
2012,04,06,06,01,1.10
2012,04,06,06,02,1.10
2012,04,06,06,03,1.10
2012,04,06,06,04,1.10
2012,04,06,06,05,1.10
2012,04,06,06,06,1.10
2012,04,06,06,07,1.10
2012,04,06,06,08,1.10
2012,04,06,06,09,1.10
2012,04,06,06,10,1.10
2012,04,06,06,11,1.10
2012,04,06,06,12,1.10
2012,04,06,06,13,1.10
2012,04,06,06,14,1.10
2012,04,06,06,15,1.10
2012,04,06,06,16,1.10
2012,04,06,06,17,1.10
2012,04,06,06,18,1.10
2012,04,06,06,19,1.10
2012,04,06,06,20,1.10
2012,04,06,06,21,1.10
2012,04,06,06,22,1.10
2012,04,06,06,23,1.10
2012,04,06,06,24,1.10
2012,04,06,06,25,1.10
2012,04,06,06,26,1.10
2012,04,06,06,27,1.10
2012,04,06,06,28,1.10
2012,04,06,06,29,1.10
2012,04,06,06,30,1.10
2012,04,06,06,31,1.10
2012,04,06,06,32,1.10
2012,04,06,06,33,1.10
2012,04,06,06,34,1.10
2012,04,06,06,35,1.10
2012,04,06,06,36,1.10
2012,04,06,06,37,1.10
2012,04,06,06,38,1.00
2012,04,06,06,39,1.00
2012,04,06,06,40,1.00
2012,04,06,06,41,1.00
2012,04,06,06,42,1.00
2012,04,06,06,43,1.00
2012,04,06,06,44,1.00
2012,04,06,06,45,1.00
2012,04,06,06,46,1.00
2012,04,06,06,47,1.00
2012,04,06,06,48,1.00
2012,04,06,06,49,1.00
2012,04,06,06,50,1.00
2012,04,06,06,51,1.00
2012,04,06,06,52,1.00
2012,04,06,06,53,1.00
2012,04,06,06,54,1.00
2012,04,06,06,55,1.00
2012,04,06,06,56,1.00
2012,04,06,06,57,1.00
2012,04,06,06,58,1.00
2012,04,06,06,59,1.00
2012,04,06,07,00,1.00
2012,04,06,07,01,1.00
2012,04,06,07,02,1.00
2012,04,06,07,03,1.00
2012,04,06,07,04,1.00
2012,04,06,07,05,1.00
2012,04,06,07,06,1.00
2012,04,06,07,07,1.00
2012,04,06,07,08,1.00
2012,04,06,07,09,1.00
2012,04,06,07,10,1.00
2012,04,06,07,11,1.00
2012,04,06,07,12,1.00
2012,04,06,07,13,1.00
2012,04,06,07,14,1.00
2012,04,06,07,15,1.00
2012,04,06,07,16,1.00
2012,04,06,07,17,1.00
2012,04,06,07,18,1.10
2012,04,06,07,19,1.10
2012,04,06,07,20,1.10
2012,04,06,07,21,1.10
2012,04,06,07,22,1.20
2012,04,06,07,23,1.20
2012,04,06,07,24,1.20
2012,04,06,07,25,1.20
2012,04,06,07,26,1.30
2012,04,06,07,27,1.30
2012,04,06,07,28,1.30
2012,04,06,07,29,1.30
2012,04,06,07,30,1.40
2012,04,06,07,31,1.40
2012,04,06,07,32,1.40
2012,04,06,07,33,1.50
2012,04,06,07,34,1.50
2012,04,06,07,35,1.60
2012,04,06,07,36,1.60
2012,04,06,07,37,1.70
2012,04,06,07,38,1.70
2012,04,06,07,39,1.80
2012,04,06,07,40,1.80
2012,04,06,07,41,1.80
2012,04,06,07,42,1.90
2012,04,06,07,43,1.90
2012,04,06,07,44,1.90
2012,04,06,07,45,2.00
2012,04,06,07,46,2.00
2012,04,06,07,47,2.10
2012,04,06,07,48,2.10
2012,04,06,07,49,2.20
2012,04,06,07,50,2.30
2012,04,06,07,51,2.40
2012,04,06,07,52,2.50
2012,04,06,07,53,2.60
2012,04,06,07,54,2.70
2012,04,06,07,55,2.80
2012,04,06,07,56,2.80
2012,04,06,07,57,2.90
2012,04,06,07,58,2.90
2012,04,06,07,59,2.90
2012,04,06,08,00,2.90
2012,04,06,08,01,2.90
2012,04,06,08,02,2.90
2012,04,06,08,03,2.90
2012,04,06,08,04,2.90
2012,04,06,08,05,2.90
2012,04,06,08,06,3.00
2012,04,06,08,07,3.10
2012,04,06,08,08,3.20
2012,04,06,08,09,3.30
2012,04,06,08,10,3.40
2012,04,06,08,11,3.60
2012,04,06,08,12,3.70
2012,04,06,08,13,3.80
2012,04,06,08,14,3.90
2012,04,06,08,15,4.00
2012,04,06,08,16,4.00
2012,04,06,08,17,4.00
2012,04,06,08,18,4.10
2012,04,06,08,19,4.20
2012,04,06,08,20,4.20
2012,04,06,08,21,4.20
2012,04,06,08,22,4.30
2012,04,06,08,23,4.30
2012,04,06,08,24,4.30
2012,04,06,08,25,4.30
2012,04,06,08,26,4.30
2012,04,06,08,27,4.30
2012,04,06,08,28,4.30
2012,04,06,08,29,4.40
2012,04,06,08,30,4.40
2012,04,06,08,31,4.40
2012,04,06,08,32,4.40
2012,04,06,08,33,4.40
2012,04,06,08,34,4.40
2012,04,06,08,35,4.40
2012,04,06,08,36,4.50
2012,04,06,08,37,4.50
2012,04,06,08,38,4.60
2012,04,06,08,39,4.70
2012,04,06,08,40,4.80
2012,04,06,08,41,4.90
2012,04,06,08,42,5.00
2012,04,06,08,43,5.20
2012,04,06,08,44,5.30
2012,04,06,08,45,5.30
2012,04,06,08,46,5.40
2012,04,06,08,47,5.50
2012,04,06,08,48,5.60
2012,04,06,08,49,5.60
2012,04,06,08,50,5.60
2012,04,06,08,51,5.60
2012,04,06,08,52,5.60
2012,04,06,08,53,5.60
2012,04,06,08,54,5.60
2012,04,06,08,55,5.60
2012,04,06,08,56,5.60
2012,04,06,08,57,5.70
2012,04,06,08,58,5.70
2012,04,06,08,59,5.80
2012,04,06,09,00,5.80
2012,04,06,09,01,5.90
2012,04,06,09,02,5.90
2012,04,06,09,03,6.00
2012,04,06,09,04,6.20
2012,04,06,09,05,6.20
2012,04,06,09,06,6.30
2012,04,06,09,07,6.40
2012,04,06,09,08,6.40
2012,04,06,09,09,6.40
2012,04,06,09,10,6.30
2012,04,06,09,11,6.30
2012,04,06,09,12,6.30
2012,04,06,09,13,6.30
2012,04,06,09,14,6.40
2012,04,06,09,15,6.50
2012,04,06,09,16,6.50
2012,04,06,09,17,6.40
2012,04,06,09,18,6.40
2012,04,06,09,19,6.40
2012,04,06,09,20,6.40
2012,04,06,09,21,6.40
2012,04,06,09,22,6.30
2012,04,06,09,23,6.30
2012,04,06,09,24,6.20
2012,04,06,09,25,6.30
2012,04,06,09,26,6.40
2012,04,06,09,27,6.50
2012,04,06,09,28,6.60
2012,04,06,09,29,6.60
2012,04,06,09,30,6.60
2012,04,06,09,31,6.60
2012,04,06,09,32,6.50
2012,04,06,09,33,6.40
2012,04,06,09,34,6.50
2012,04,06,09,35,6.60
2012,04,06,09,36,6.60
2012,04,06,09,37,6.60
2012,04,06,09,38,6.60
2012,04,06,09,39,6.40
2012,04,06,09,40,6.40
2012,04,06,09,41,6.40
2012,04,06,09,42,6.30
2012,04,06,09,43,6.40
2012,04,06,09,44,6.50
2012,04,06,09,45,6.50
2012,04,06,09,46,6.40
2012,04,06,09,47,6.30
2012,04,06,09,48,6.20
2012,04,06,09,49,6.10
2012,04,06,09,50,6.10
2012,04,06,09,51,6.20
2012,04,06,09,52,6.20
2012,04,06,09,53,6.20
2012,04,06,09,54,6.30
2012,04,06,09,55,6.40
2012,04,06,09,56,6.40
2012,04,06,09,57,6.50
2012,04,06,09,58,6.60
2012,04,06,09,59,6.60
2012,04,06,10,00,6.50
2012,04,06,10,01,6.40
2012,04,06,10,02,6.40
2012,04,06,10,03,6.30
2012,04,06,10,04,6.30
2012,04,06,10,05,6.40
2012,04,06,10,06,6.50
2012,04,06,10,07,6.60
2012,04,06,10,08,6.60
2012,04,06,10,09,6.60
2012,04,06,10,10,6.60
2012,04,06,10,11,6.60
2012,04,06,10,12,6.50
2012,04,06,10,13,6.50
2012,04,06,10,14,6.60
2012,04,06,10,15,6.70
2012,04,06,10,16,6.60
2012,04,06,10,17,6.80
2012,04,06,10,18,6.80
2012,04,06,10,19,6.80
2012,04,06,10,20,6.80
2012,04,06,10,21,6.70
2012,04,06,10,22,6.60
2012,04,06,10,23,6.60
2012,04,06,10,24,6.70
2012,04,06,10,25,6.80
2012,04,06,10,26,7.00
2012,04,06,10,27,7.10
2012,04,06,10,28,7.30
2012,04,06,10,29,7.30
2012,04,06,10,30,7.30
2012,04,06,10,31,7.10
2012,04,06,10,32,7.00
2012,04,06,10,33,6.90
2012,04,06,10,34,6.90
2012,04,06,10,35,7.00
2012,04,06,10,36,7.30
2012,04,06,10,37,7.40
2012,04,06,10,38,7.40
2012,04,06,10,39,7.30
2012,04,06,10,40,7.30
2012,04,06,10,41,7.30
2012,04,06,10,42,7.20
2012,04,06,10,43,7.20
2012,04,06,10,44,7.10
2012,04,06,10,45,7.10
2012,04,06,10,46,7.10
2012,04,06,10,47,7.10
2012,04,06,10,48,7.20
2012,04,06,10,49,7.20
2012,04,06,10,50,7.10
2012,04,06,10,51,7.00
2012,04,06,10,52,7.00
2012,04,06,10,53,7.00
2012,04,06,10,54,7.20
2012,04,06,10,55,7.40
2012,04,06,10,56,7.50
2012,04,06,10,57,7.50
2012,04,06,10,58,7.60
2012,04,06,10,59,7.70
2012,04,06,11,00,7.60
2012,04,06,11,01,7.50
2012,04,06,11,02,7.60
2012,04,06,11,03,7.60
2012,04,06,11,04,7.60
2012,04,06,11,05,7.60
2012,04,06,11,06,7.60
2012,04,06,11,07,7.80
2012,04,06,11,08,7.70
2012,04,06,11,09,7.60
2012,04,06,11,10,7.70
2012,04,06,11,11,7.80
2012,04,06,11,12,7.90
2012,04,06,11,13,8.00
2012,04,06,11,14,8.10
2012,04,06,11,15,8.10
2012,04,06,11,16,7.90
2012,04,06,11,17,7.80
2012,04,06,11,18,7.80
2012,04,06,11,19,7.60
2012,04,06,11,20,7.60
2012,04,06,11,21,7.70
2012,04,06,11,22,7.60
2012,04,06,11,23,7.60
2012,04,06,11,24,7.50
2012,04,06,11,25,7.50
2012,04,06,11,26,7.60
2012,04,06,11,27,7.70
2012,04,06,11,28,7.80
2012,04,06,11,29,7.80
2012,04,06,11,30,7.80
2012,04,06,11,31,7.90
2012,04,06,11,32,7.90
2012,04,06,11,33,7.80
2012,04,06,11,34,7.90
2012,04,06,11,35,7.80
2012,04,06,11,36,7.90
2012,04,06,11,37,7.90
2012,04,06,11,38,8.00
2012,04,06,11,39,8.00
2012,04,06,11,40,8.10
2012,04,06,11,41,8.00
2012,04,06,11,42,8.00
2012,04,06,11,43,8.00
2012,04,06,11,44,8.10
2012,04,06,11,45,8.20
2012,04,06,11,46,8.20
2012,04,06,11,47,8.10
2012,04,06,11,48,8.20
2012,04,06,11,49,8.20
2012,04,06,11,50,8.20
2012,04,06,11,51,8.20
2012,04,06,11,52,8.20
2012,04,06,11,53,8.20
2012,04,06,11,54,8.20
2012,04,06,11,55,8.00
2012,04,06,11,56,8.00
2012,04,06,11,57,7.90
2012,04,06,11,58,7.80
2012,04,06,11,59,7.80
2012,04,06,12,00,7.80
2012,04,06,12,01,7.90
2012,04,06,12,02,8.00
2012,04,06,12,03,8.10
2012,04,06,12,04,8.10
2012,04,06,12,05,8.10
2012,04,06,12,06,8.10
2012,04,06,12,07,8.20
2012,04,06,12,08,8.10
2012,04,06,12,09,8.20
2012,04,06,12,10,8.20
2012,04,06,12,11,8.20
2012,04,06,12,12,8.20
2012,04,06,12,13,8.20
2012,04,06,12,14,8.20
2012,04,06,12,15,8.30
2012,04,06,12,16,8.40
2012,04,06,12,17,8.40
2012,04,06,12,18,8.40
2012,04,06,12,19,8.40
2012,04,06,12,20,8.40
2012,04,06,12,21,8.40
2012,04,06,12,22,8.30
2012,04,06,12,23,8.20
2012,04,06,12,24,8.20
2012,04,06,12,25,8.10
2012,04,06,12,26,8.10
2012,04,06,12,27,8.20
2012,04,06,12,28,8.20
2012,04,06,12,29,8.20
2012,04,06,12,30,8.30
2012,04,06,12,31,8.40
2012,04,06,12,32,8.40
2012,04,06,12,33,8.50
2012,04,06,12,34,8.70
2012,04,06,12,35,8.80
2012,04,06,12,36,9.10
2012,04,06,12,37,9.30
2012,04,06,12,38,9.40
2012,04,06,12,39,9.30
2012,04,06,12,40,9.30
2012,04,06,12,41,9.40
2012,04,06,12,42,9.40
2012,04,06,12,43,9.40
2012,04,06,12,44,9.30
2012,04,06,12,45,9.30
2012,04,06,12,46,9.20
2012,04,06,12,47,9.20
2012,04,06,12,48,9.20
2012,04,06,12,49,9.20
2012,04,06,12,50,9.20
2012,04,06,12,51,9.20
2012,04,06,12,52,9.30
2012,04,06,12,53,9.30
2012,04,06,12,54,9.30
2012,04,06,12,55,9.30
2012,04,06,12,56,9.20
2012,04,06,12,57,9.20
2012,04,06,12,58,9.20
2012,04,06,12,59,9.20
2012,04,06,13,00,9.30
2012,04,06,13,01,9.30
2012,04,06,13,02,9.30
2012,04,06,13,03,9.20
2012,04,06,13,04,9.10
2012,04,06,13,05,9.00
2012,04,06,13,06,9.00
2012,04,06,13,07,9.00
2012,04,06,13,08,8.90
2012,04,06,13,09,8.90
2012,04,06,13,10,8.90
2012,04,06,13,11,8.90
2012,04,06,13,12,8.90
2012,04,06,13,13,8.90
2012,04,06,13,14,8.90
2012,04,06,13,15,8.90
2012,04,06,13,16,9.00
2012,04,06,13,17,9.00
2012,04,06,13,18,9.00
2012,04,06,13,19,9.00
2012,04,06,13,20,9.00
2012,04,06,13,21,9.00
2012,04,06,13,22,8.90
2012,04,06,13,23,8.90
2012,04,06,13,24,8.90
2012,04,06,13,25,8.90
2012,04,06,13,26,8.90
2012,04,06,13,27,8.90
2012,04,06,13,28,8.90
2012,04,06,13,29,8.90
2012,04,06,13,30,8.90
2012,04,06,13,31,9.00
2012,04,06,13,32,9.00
2012,04,06,13,33,9.10
2012,04,06,13,34,9.10
2012,04,06,13,35,9.00
2012,04,06,13,36,9.00
2012,04,06,13,37,8.90
2012,04,06,13,38,8.90
2012,04,06,13,39,8.90
2012,04,06,13,40,8.90
2012,04,06,13,41,8.90
2012,04,06,13,42,8.90
2012,04,06,13,43,8.90
2012,04,06,13,44,8.90
2012,04,06,13,45,8.90
2012,04,06,13,46,8.90
2012,04,06,13,47,9.00
2012,04,06,13,48,9.00
2012,04,06,13,49,9.00
2012,04,06,13,50,9.00
2012,04,06,13,51,9.00
2012,04,06,13,52,8.90
2012,04,06,13,53,8.90
2012,04,06,13,54,8.90
2012,04,06,13,55,8.90
2012,04,06,13,56,8.90
2012,04,06,13,57,8.80
2012,04,06,13,58,8.80
2012,04,06,13,59,8.80
2012,04,06,14,00,8.80
2012,04,06,14,01,8.90
2012,04,06,14,02,8.90
2012,04,06,14,03,8.90
2012,04,06,14,04,8.90
2012,04,06,14,05,8.90
2012,04,06,14,06,8.90
2012,04,06,14,07,8.80
2012,04,06,14,08,8.80
2012,04,06,14,09,8.70
2012,04,06,14,10,8.60
2012,04,06,14,11,8.50
2012,04,06,14,12,8.40
2012,04,06,14,13,8.30
2012,04,06,14,14,8.30
2012,04,06,14,15,8.30
2012,04,06,14,16,8.30
2012,04,06,14,17,8.30
2012,04,06,14,18,8.30
2012,04,06,14,19,8.30
2012,04,06,14,20,8.30
2012,04,06,14,21,8.30
2012,04,06,14,22,8.30
2012,04,06,14,23,8.30
2012,04,06,14,24,8.30
2012,04,06,14,25,8.30
2012,04,06,14,26,8.40
2012,04,06,14,27,8.40
2012,04,06,14,28,8.50
2012,04,06,14,29,8.60
2012,04,06,14,30,8.60
2012,04,06,14,31,8.70
2012,04,06,14,32,8.70
2012,04,06,14,33,8.70
2012,04,06,14,34,8.70
2012,04,06,14,35,8.60
2012,04,06,14,36,8.50
2012,04,06,14,37,8.50
2012,04,06,14,38,8.50
2012,04,06,14,39,8.40
2012,04,06,14,40,8.40
2012,04,06,14,41,8.40
2012,04,06,14,42,8.40
2012,04,06,14,43,8.30
2012,04,06,14,44,8.30
2012,04,06,14,45,8.30
2012,04,06,14,46,8.30
2012,04,06,14,47,8.30
2012,04,06,14,48,8.30
2012,04,06,14,49,8.30
2012,04,06,14,50,8.30
2012,04,06,14,51,8.30
2012,04,06,14,52,8.40
2012,04,06,14,53,8.40
2012,04,06,14,54,8.40
2012,04,06,14,55,8.40
2012,04,06,14,56,8.50
2012,04,06,14,57,8.50
2012,04,06,14,58,8.50
2012,04,06,14,59,8.50
2012,04,06,15,00,8.50
2012,04,06,15,01,8.50
2012,04,06,15,02,8.50
2012,04,06,15,03,8.50
2012,04,06,15,04,8.50
2012,04,06,15,05,8.60
2012,04,06,15,06,8.70
2012,04,06,15,07,8.80
2012,04,06,15,08,8.90
2012,04,06,15,09,8.90
2012,04,06,15,10,8.90
2012,04,06,15,11,8.80
2012,04,06,15,12,8.70
2012,04,06,15,13,8.60
2012,04,06,15,14,8.60
2012,04,06,15,15,8.60
2012,04,06,15,16,8.60
2012,04,06,15,17,8.60
2012,04,06,15,18,8.70
2012,04,06,15,19,8.70
2012,04,06,15,20,8.70
2012,04,06,15,21,8.80
2012,04,06,15,22,8.80
2012,04,06,15,23,8.90
2012,04,06,15,24,9.00
2012,04,06,15,25,9.10
2012,04,06,15,26,9.20
2012,04,06,15,27,9.20
2012,04,06,15,28,9.20
2012,04,06,15,29,9.20
2012,04,06,15,30,9.20
2012,04,06,15,31,9.10
2012,04,06,15,32,9.00
2012,04,06,15,33,9.00
2012,04,06,15,34,9.10
2012,04,06,15,35,9.10
2012,04,06,15,36,9.10
2012,04,06,15,37,9.20
2012,04,06,15,38,9.30
2012,04,06,15,39,9.30
2012,04,06,15,40,9.30
2012,04,06,15,41,9.40
2012,04,06,15,42,9.50
2012,04,06,15,43,9.60
2012,04,06,15,44,9.70
2012,04,06,15,45,9.70
2012,04,06,15,46,9.70
2012,04,06,15,47,9.70
2012,04,06,15,48,9.70
2012,04,06,15,49,9.70
2012,04,06,15,50,9.70
2012,04,06,15,51,9.70
2012,04,06,15,52,9.60
2012,04,06,15,53,9.60
2012,04,06,15,54,9.60
2012,04,06,15,55,9.60
2012,04,06,15,56,9.60
2012,04,06,15,57,9.70
2012,04,06,15,58,9.80
2012,04,06,15,59,9.90
2012,04,06,16,00,10.00
2012,04,06,16,01,10.10
2012,04,06,16,02,10.10
2012,04,06,16,03,10.10
2012,04,06,16,04,10.10
2012,04,06,16,05,10.10
2012,04,06,16,06,10.10
2012,04,06,16,07,10.10
2012,04,06,16,08,10.10
2012,04,06,16,09,10.10
2012,04,06,16,10,10.10
2012,04,06,16,11,10.10
2012,04,06,16,12,10.20
2012,04,06,16,13,10.20
2012,04,06,16,14,10.30
2012,04,06,16,15,10.30
2012,04,06,16,16,10.40
2012,04,06,16,17,10.50
2012,04,06,16,18,10.60
2012,04,06,16,19,10.60
2012,04,06,16,20,10.60
2012,04,06,16,21,10.60
2012,04,06,16,22,10.60
2012,04,06,16,23,10.70
2012,04,06,16,24,10.70
2012,04,06,16,25,10.70
2012,04,06,16,26,10.80
2012,04,06,16,27,10.90
2012,04,06,16,28,10.90
2012,04,06,16,29,10.70
2012,04,06,16,30,10.60
2012,04,06,16,31,10.60
2012,04,06,16,32,10.60
2012,04,06,16,33,10.60
2012,04,06,16,34,10.60
2012,04,06,16,35,10.60
2012,04,06,16,36,10.60
2012,04,06,16,37,10.60
2012,04,06,16,38,10.60
2012,04,06,16,39,10.70
2012,04,06,16,40,10.70
2012,04,06,16,41,10.80
2012,04,06,16,42,10.70
2012,04,06,16,43,10.70
2012,04,06,16,44,10.70
2012,04,06,16,45,10.60
2012,04,06,16,46,10.60
2012,04,06,16,47,10.60
2012,04,06,16,48,10.50
2012,04,06,16,49,10.40
2012,04,06,16,50,10.40
2012,04,06,16,51,10.40
2012,04,06,16,52,10.50
2012,04,06,16,53,10.50
2012,04,06,16,54,10.40
2012,04,06,16,55,10.40
2012,04,06,16,56,10.50
2012,04,06,16,57,10.60
2012,04,06,16,58,10.70
2012,04,06,16,59,10.70
2012,04,06,17,00,10.70
2012,04,06,17,01,10.70
2012,04,06,17,02,10.60
2012,04,06,17,03,10.60
2012,04,06,17,04,10.60
2012,04,06,17,05,10.60
2012,04,06,17,06,10.60
2012,04,06,17,07,10.60
2012,04,06,17,08,10.60
2012,04,06,17,09,10.60
2012,04,06,17,10,10.60
2012,04,06,17,11,10.60
2012,04,06,17,12,10.60
2012,04,06,17,13,10.60
2012,04,06,17,14,10.60
2012,04,06,17,15,10.60
2012,04,06,17,16,10.60
2012,04,06,17,17,10.60
2012,04,06,17,18,10.60
2012,04,06,17,19,10.60
2012,04,06,17,20,10.70
2012,04,06,17,21,10.70
2012,04,06,17,22,10.80
2012,04,06,17,23,10.90
2012,04,06,17,24,10.90
2012,04,06,17,25,10.90
2012,04,06,17,26,10.90
2012,04,06,17,27,10.90
2012,04,06,17,28,10.80
2012,04,06,17,29,10.70
2012,04,06,17,30,10.70
2012,04,06,17,31,10.70
2012,04,06,17,32,10.80
2012,04,06,17,33,10.70
2012,04,06,17,34,10.60
2012,04,06,17,35,10.60
2012,04,06,17,36,10.60
2012,04,06,17,37,10.70
2012,04,06,17,38,10.70
2012,04,06,17,39,10.70
2012,04,06,17,40,10.60
2012,04,06,17,41,10.70
2012,04,06,17,42,10.70
2012,04,06,17,43,10.60
2012,04,06,17,44,10.60
2012,04,06,17,45,10.60
2012,04,06,17,46,10.40
2012,04,06,17,47,10.30
2012,04,06,17,48,10.30
2012,04,06,17,49,10.30
2012,04,06,17,50,10.30
2012,04,06,17,51,10.30
2012,04,06,17,52,10.30
2012,04,06,17,53,10.30
2012,04,06,17,54,10.30
2012,04,06,17,55,10.40
2012,04,06,17,56,10.40
2012,04,06,17,57,10.40
2012,04,06,17,58,10.40
2012,04,06,17,59,10.40
2012,04,06,18,00,10.40
2012,04,06,18,01,10.40